Flag for India Weather past 2 weeks in Thiruvananthapuram, Kerala, India

79 °F


Feels Like: 82 °F
Forecast: 78 / 88 °F
Wind: 3 mph from Northeast

Location: Thiruvananthapuram

Current Time: Nov 26, 2015 at 5:17:06 AM

Latest Report: Nov 26, 2015 at 4:30 AM

Visibility: 2 mi

Pressure: 29.80 "Hg

Humidity: 89%

Dew point: 75 °F

Location of ThiruvananthapuramLocation

Historic Weather in Thiruvananthapuram — Graph


Thiruvananthapuram temperature yesterday

Maximum temperature yesterday: 90 °F (at 11:30 AM)
Minimum temperature yesterday: 79 °F (at 4:30 AM)
Average temperature yesterday: 84 °F

Past Weeks' High & Low Weather Summary

High90 °F (Nov 11, 12:40 PM)94% (Nov 11, 3:40 AM)30.04 "Hg (Nov 11, 3:40 AM)
Low77 °F (Nov 11, 3:40 AM)66% (Nov 11, 2:10 PM)29.68 "Hg (Nov 15, 3:00 PM)
Average82 °F83%29.78 "Hg
* Reported Nov 11 3:40 AM — Nov 26 4:00 AM, Thiruvananthapuram, Weather by CustomWeather, © 2015

Note: Actual official high and low records may vary slightly from our data, if they occured in-between our weather recording intervals... More about our weather records


Thiruvananthapuram weather history for previous 24 hours

Time TempWeatherWind HumidityBarometerVisibility
4:00 AM
Thu, Nov 26
79 °FHaze.3 mph89%29.80 "Hg2 mi
3:30 AM79 °FHaze.No wind89%29.80 "Hg2 mi
3:00 AM79 °FHaze.No wind89%29.80 "Hg2 mi
2:30 AM79 °FHaze.No wind89%29.83 "Hg2 mi
2:00 AM81 °FHaze.5 mph84%29.83 "Hg2 mi
1:30 AM81 °FPassing clouds.3 mph79%29.83 "Hg2 mi
1:00 AM81 °FHaze.3 mph84%29.86 "Hg2 mi
12:30 AM81 °FHaze.3 mph84%29.86 "Hg2 mi
12:00 AM81 °FHaze.No wind84%29.86 "Hg2 mi
11:30 PM
Wed, Nov 25
81 °FHaze.No wind84%29.86 "Hg2 mi
11:00 PM81 °FHaze.No wind84%29.86 "Hg2 mi
10:00 PM82 °FHaze.No wind79%29.86 "Hg2 mi
9:00 PM82 °FHaze.No wind79%29.86 "Hg2 mi
8:30 PM84 °FHaze.No wind74%29.83 "Hg2 mi
8:00 PM84 °FHaze.3 mph79%29.83 "Hg2 mi
6:30 PM86 °FHaze.No wind75%29.77 "Hg2 mi
6:00 PM86 °FPassing clouds.No wind75%29.77 "Hg4 mi
5:30 PM88 °FPassing clouds.No wind70%29.74 "Hg4 mi
5:00 PM88 °FPassing clouds.5 mph70%29.74 "Hg4 mi
4:30 PM88 °FScattered clouds.6 mph70%29.74 "Hg4 mi
4:00 PM90 °FThunderstorms. Scattered clouds.5 mph67%29.74 "Hg4 mi
3:30 PM90 °FScattered clouds.7 mph67%29.74 "Hg4 mi
3:00 PM90 °FScattered clouds.7 mph67%29.74 "Hg4 mi
2:30 PM90 °FScattered clouds.5 mph71%29.74 "Hg4 mi
2:00 PM90 °FScattered clouds.6 mph67%29.74 "Hg4 mi
1:30 PM90 °FScattered clouds.8 mph67%29.74 "Hg4 mi
1:00 PM90 °FScattered clouds.8 mph67%29.77 "Hg4 mi
12:30 PM90 °FScattered clouds.7 mph71%29.77 "Hg4 mi
12:00 PM88 °FScattered clouds.8 mph75%29.80 "Hg4 mi
11:30 AM90 °FScattered clouds.7 mph71%29.80 "Hg4 mi
11:00 AM88 °FScattered clouds.7 mph75%29.83 "Hg4 mi
10:30 AM88 °FScattered clouds.7 mph75%29.83 "Hg4 mi
9:30 AM86 °FScattered clouds.5 mph79%29.83 "Hg3 mi
9:00 AM84 °FScattered clouds.3 mph84%29.83 "Hg3 mi
8:30 AM84 °FHaze.3 mph79%29.83 "Hg2 mi
8:00 AM82 °FHaze.5 mph89%29.83 "Hg2 mi
7:30 AM81 °FHaze.3 mph94%29.83 "Hg1 mi
7:00 AM79 °FHaze.No wind89%29.80 "Hg1 mi
6:30 AM79 °FHaze.No wind89%29.80 "Hg1 mi
6:00 AM79 °FHaze.No wind89%29.80 "Hg2 mi
5:30 AM79 °FHaze.No wind89%29.77 "Hg2 mi
5:00 AM79 °FHaze.No wind89%29.77 "Hg2 mi
Weather by CustomWeather, © 2015

See weather overviewHow to use our weather pages